period_start,C,m1,H,J0,J1,J2,J3,J4,J5,JA,JB,JC,JD,JJ,JK,JN,#
2013-11-20 00:00:51,0.29,2.33,0.00,26.66,28.15,30.86,5.94,31.00,1015.21,2040.92,2629.86,2703.16,2920.02,349.86,319.77,20.62,0000 0000 0000 0000 000000
2013-11-20 00:01:51,0.19,2.33,0.00,26.16,28.15,30.84,5.84,31.17,1015.19,2040.93,2629.33,2702.97,2919.53,349.96,320.04,20.63,0000 0000 0000 0000 000000
2013-11-20 00:02:51,0.23,2.33,0.00,26.16,28.15,30.82,5.83,30.96,1015.17,2040.96,2629.03,2702.44,2919.19,350.65,320.70,20.63,0000 0000 0000 0000 000000
2013-11-20 00:03:52,0.28,2.34,0.00,26.36,28.15,30.81,5.99,31.08,1015.17,2040.97,2628.48,2702.16,2918.99,351.07,320.88,20.64,0000 0000 0000 0000 000000
2013-11-20 00:04:52,0.23,2.34,0.00,26.47,28.15,30.79,5.88,30.96,1015.16,2040.98,2628.12,2701.99,2918.45,349.98,319.74,20.64,0000 0000 0000 0000 000000
2013-11-20 00:05:52,0.23,2.34,0.00,26.52,28.15,30.88,5.93,31.00,1015.15,2040.94,2627.53,2701.48,2918.14,349.45,319.20,20.65,0000 0000 0000 0000 000000
2013-11-20 00:06:52,0.26,2.34,0.00,26.55,28.15,30.91,5.60,30.71,1015.15,2040.94,2627.14,2701.17,2917.71,349.94,319.86,20.65,0000 0000 0000 0000 000000
2013-11-20 00:07:53,0.23,2.34,0.00,26.56,28.15,30.89,5.98,31.21,1015.15,2040.95,2626.53,2700.97,2917.26,350.32,319.96,20.66,0000 0000 0000 0000 000000
2013-11-20 00:08:53,0.26,2.34,0.00,26.58,28.16,30.83,5.77,31.08,1015.15,2040.95,2626.15,2700.45,2917.07,349.91,319.55,20.67,0000 0000 0000 0000 000000
2013-11-20 00:09:53,0.25,2.35,0.00,26.61,28.17,30.86,5.69,30.79,1015.15,2040.93,2625.59,2700.16,2916.59,349.90,319.49,20.67,0000 0000 0000 0000 000000
2013-11-20 00:10:54,0.22,2.35,0.00,26.61,28.17,30.87,5.99,31.21,1015.15,2040.91,2625.21,2699.93,2916.22,350.95,320.47,20.68,0000 0000 0000 0000 000000
2013-11-20 00:11:54,0.21,2.35,0.00,26.63,28.17,30.84,5.87,31.00,1015.15,2040.86,2624.67,2699.41,2915.90,349.61,319.22,20.68,0000 0000 0000 0000 000000
2013-11-20 00:12:54,0.25,2.35,0.00,26.65,28.17,30.90,5.80,30.88,1015.15,2040.83,2624.24,2699.14,2915.38,349.78,319.36,20.69,0000 0000 0000 0000 000000
2013-11-20 00:13:54,0.19,2.35,0.00,26.63,28.17,30.81,5.95,31.25,1015.15,2040.77,2623.78,2698.83,2915.11,350.90,320.58,20.70,0000 0000 0000 0000 000000
2013-11-20 00:14:55,0.20,2.35,0.00,26.66,28.17,30.82,6.02,31.29,1015.14,2040.70,2623.30,2698.35,2914.74,350.26,319.78,20.70,0000 0000 0000 0000 000000
2013-11-20 00:15:55,0.23,2.35,0.00,26.67,28.17,30.88,5.85,31.00,1015.11,2040.68,2623.08,2698.12,2914.29,349.96,319.48,20.71,0000 0000 0000 0000 000000
2013-11-20 00:16:55,0.14,2.36,0.00,26.24,28.17,30.87,5.85,31.04,1015.07,2040.67,2622.62,2697.82,2914.04,350.66,320.53,20.71,0000 0000 0000 0000 000000
2013-11-20 00:17:56,0.22,2.36,0.00,26.03,28.17,30.85,6.12,31.08,1015.01,2040.58,2622.22,2697.32,2913.51,349.88,320.21,20.72,0000 0000 0000 0000 000000
2013-11-20 00:18:56,0.22,2.36,0.00,26.35,28.17,30.81,5.88,31.00,1014.96,2040.54,2621.74,2697.11,2913.18,349.86,319.84,20.72,0000 0000 0000 0000 000000
2013-11-20 00:19:56,0.20,2.36,0.00,26.49,28.17,30.80,5.74,30.54,1014.97,2040.60,2621.27,2696.85,2912.90,349.34,319.15,20.73,0000 0000 0000 0000 000000
2013-11-20 00:20:56,0.23,2.36,0.00,26.55,28.17,30.80,5.81,30.88,1014.80,2040.52,2620.87,2696.36,2912.37,349.70,319.09,20.74,0000 0000 0000 0000 000000
2013-11-20 00:21:57,0.23,2.36,0.00,26.59,28.18,30.87,5.88,31.08,1014.72,2040.42,2620.35,2696.13,2912.13,350.19,319.84,20.74,0000 0000 0000 0000 000000
2013-11-20 00:22:57,0.13,2.36,0.00,26.60,28.19,30.83,5.91,31.08,1014.69,2040.27,2619.97,2695.81,2911.69,350.28,320.00,20.75,0000 0000 0000 0000 000000
2013-11-20 00:23:57,0.12,2.36,0.00,26.65,28.19,30.87,5.78,30.54,1014.70,2040.17,2619.41,2695.31,2911.25,349.55,319.53,20.75,0000 0000 0000 0000 000000
2013-11-20 00:24:57,0.25,2.36,0.00,26.65,28.20,30.91,5.83,30.79,1014.67,2040.24,2619.10,2695.11,2910.98,349.41,319.66,20.76,0000 0000 0000 0000 000000
2013-11-20 00:25:58,0.25,2.37,0.00,26.65,28.20,30.90,5.78,30.75,1014.68,2040.24,2618.55,2694.77,2910.47,349.55,319.00,20.77,0000 0000 0000 0000 000000
2013-11-20 00:26:58,0.23,2.37,0.00,26.68,28.20,30.89,5.77,30.83,1014.66,2040.16,2618.19,2694.32,2910.17,350.27,319.62,20.77,0000 0000 0000 0000 000000
2013-11-20 00:27:58,0.17,2.37,0.00,26.69,28.20,30.89,5.83,30.79,1014.66,2040.15,2617.71,2694.11,2909.86,349.02,318.23,20.78,0000 0000 0000 0000 000000
2013-11-20 00:28:59,0.20,2.37,0.00,26.72,28.20,30.93,5.97,31.17,1014.64,2040.12,2617.24,2693.68,2909.34,350.62,319.90,20.78,0000 0000 0000 0000 000000
2013-11-20 00:29:59,0.29,2.37,0.00,26.73,28.20,30.90,6.02,31.29,1014.53,2040.08,2616.68,2693.27,2909.09,350.61,319.84,20.79,0000 0000 0000 0000 000000
2013-11-20 00:30:59,0.23,2.37,0.00,26.72,28.20,30.88,5.98,31.08,1014.28,2040.06,2616.24,2693.07,2908.62,350.34,319.52,20.80,0000 0000 0000 0000 000000
2013-11-20 00:32:00,0.20,2.37,0.00,26.73,28.20,30.93,5.80,30.75,1014.20,2040.10,2615.91,2692.74,2908.23,349.69,318.90,20.80,0000 0000 0000 0000 000000
2013-11-20 00:33:00,0.28,2.38,0.00,26.74,28.20,30.92,6.05,31.17,1014.19,2040.10,2615.39,2692.28,2908.06,350.95,320.03,20.81,0000 0000 0000 0000 000000
2013-11-20 00:34:00,0.24,2.38,0.00,26.76,28.21,30.92,5.89,31.50,1014.19,2040.05,2615.05,2692.09,2907.58,350.25,319.29,20.81,0000 0000 0000 0000 000000
2013-11-20 00:35:01,0.18,2.38,0.00,26.75,28.22,30.86,5.83,31.33,1014.18,2040.02,2614.47,2691.68,2907.21,349.55,318.63,20.82,0000 0000 0000 0000 000000
2013-11-20 00:36:01,0.24,2.38,0.00,26.74,28.22,30.93,6.02,31.17,1014.18,2040.01,2614.10,2691.26,2906.89,350.68,319.78,20.82,0000 0000 0000 0000 000000
2013-11-20 00:37:01,0.26,2.38,0.00,26.76,28.22,30.92,5.80,31.08,1014.18,2040.01,2613.52,2691.09,2906.39,350.47,319.99,20.83,0000 0000 0000 0000 000000
2013-11-20 00:38:02,0.21,2.38,0.00,26.78,28.22,30.97,5.88,31.13,1014.18,2040.02,2613.17,2690.79,2906.14,349.75,319.34,20.84,0000 0000 0000 0000 000000
2013-11-20 00:39:02,0.23,2.38,0.00,26.80,28.22,30.96,5.86,31.17,1014.17,2040.04,2612.75,2690.31,2905.83,349.85,318.92,20.84,0000 0000 0000 0000 000000
2013-11-20 00:40:02,0.28,2.39,0.00,26.81,28.22,30.93,5.88,31.13,1014.17,2040.02,2612.28,2690.11,2905.34,348.73,317.90,20.85,0000 0000 0000 0000 000000
2013-11-20 00:41:02,0.20,2.39,0.00,26.81,28.22,30.94,5.73,30.96,1014.17,2040.02,2611.92,2689.80,2905.09,351.48,320.43,20.85,0000 0000 0000 0000 000000
2013-11-20 00:42:03,0.24,2.39,0.00,26.82,28.22,30.96,5.83,31.33,1014.17,2040.03,2611.36,2689.31,2904.67,350.28,319.33,20.86,0000 0000 0000 0000 000000
2013-11-20 00:43:03,0.29,2.39,0.00,26.82,28.22,30.95,5.88,31.29,1014.17,2040.03,2610.95,2689.11,2904.26,350.01,319.07,20.87,0000 0000 0000 0000 000000
2013-11-20 00:44:03,0.21,2.39,0.00,26.80,28.23,30.93,5.86,31.75,1014.17,2040.01,2610.36,2688.70,2903.96,350.53,319.58,20.87,0000 0000 0000 0000 000000
2013-11-20 00:45:03,0.27,2.39,0.00,26.81,28.24,30.99,5.71,31.50,1014.17,2040.00,2609.98,2688.26,2903.40,349.92,319.01,20.88,0000 0000 0000 0000 000000
2013-11-20 00:46:04,0.26,2.39,0.00,26.81,28.25,30.92,5.87,31.13,1014.17,2040.00,2609.45,2688.09,2903.14,350.00,319.08,20.88,0000 0000 0000 0000 000000
2013-11-20 00:47:04,0.17,2.40,0.00,26.82,28.25,30.99,5.89,31.21,1014.17,2040.01,2609.15,2687.87,2902.95,349.86,319.46,20.89,0000 0000 0000 0000 000000
2013-11-20 00:48:04,0.21,2.40,0.00,26.82,28.25,31.02,5.79,31.50,1014.17,2040.00,2608.72,2687.35,2902.45,350.00,319.02,20.90,0000 0000 0000 0000 000000
2013-11-20 00:49:05,0.28,2.40,0.00,26.83,28.25,30.99,5.77,30.88,1014.17,2040.00,2608.27,2687.12,2902.15,349.37,318.62,20.90,0000 0000 0000 0000 000000
2013-11-20 00:50:05,0.18,2.40,0.00,26.83,28.25,31.00,5.76,31.13,1014.17,2040.00,2607.99,2687.03,2901.91,349.65,318.71,20.91,0000 0000 0000 0000 000000
2013-11-20 00:51:05,0.17,2.40,0.00,26.82,28.25,31.00,5.89,31.42,1014.17,2040.00,2607.45,2686.60,2901.41,350.83,319.20,20.91,0000 0000 0000 0000 000000
2013-11-20 00:52:05,0.28,2.40,0.00,26.82,28.25,30.99,5.96,31.58,1014.17,2040.00,2607.07,2686.22,2901.14,350.67,319.68,20.92,0000 0000 0000 0000 000000
2013-11-20 00:53:06,0.25,2.40,0.00,26.82,28.27,31.00,5.87,31.17,1014.15,2040.02,2606.49,2686.06,2900.81,350.33,319.00,20.92,0000 0000 0000 0000 000000
2013-11-20 00:54:06,0.23,2.41,0.00,26.82,28.27,30.94,6.01,31.29,1014.14,2040.01,2606.18,2685.66,2900.31,350.63,319.57,20.93,0000 0000 0000 0000 000000
2013-11-20 00:55:06,0.24,2.41,0.00,26.83,28.27,31.00,5.86,31.33,1014.14,2040.00,2605.69,2685.26,2900.09,350.54,319.72,20.94,0000 0000 0000 0000 000000
2013-11-20 00:56:07,0.23,2.41,0.00,26.85,28.27,30.99,5.85,31.17,1014.13,2040.00,2605.25,2685.06,2899.68,349.61,318.94,20.94,0000 0000 0000 0000 000000
2013-11-20 00:57:07,0.21,2.41,0.00,26.84,28.27,31.04,5.81,31.25,1014.09,2040.00,2604.93,2684.69,2899.25,350.16,318.68,20.95,0000 0000 0000 0000 000000
2013-11-20 00:58:07,0.27,2.41,0.00,26.82,28.27,31.01,5.74,31.33,1013.89,2040.00,2604.38,2684.26,2899.07,350.03,319.14,20.95,0000 0000 0000 0000 000000
2013-11-20 00:59:08,0.22,2.41,0.00,26.82,28.27,31.06,5.95,31.58,1013.74,2040.00,2604.13,2684.09,2898.64,350.01,318.94,20.96,0000 0000 0000 0000 000000
2013-11-20 01:00:08,0.17,2.41,0.00,26.84,28.28,31.06,5.70,30.75,1013.74,2040.00,2603.68,2683.82,2898.24,349.77,318.70,20.97,0000 0000 0000 0000 000000
2013-11-20 01:01:08,0.25,2.41,0.00,26.86,28.29,31.04,5.84,31.50,1013.79,2040.00,2603.24,2683.34,2898.03,349.53,318.47,20.97,0000 0000 0000 0000 000000
2013-11-20 01:02:09,0.24,2.42,0.00,26.85,28.29,31.05,5.69,31.08,1013.85,2040.00,2602.82,2683.11,2897.53,348.58,317.64,20.98,0000 0000 0000 0000 000000
2013-11-20 01:03:09,0.24,2.42,0.00,26.84,28.30,31.04,5.83,31.38,1013.78,2040.00,2602.30,2682.94,2897.19,350.11,319.02,20.98,0000 0000 0000 0000 000000
2013-11-20 01:04:09,0.21,2.42,0.00,26.85,28.30,31.04,5.72,31.42,1013.74,2040.00,2602.06,2682.47,2897.02,349.33,318.29,20.99,0000 0000 0000 0000 000000
2013-11-20 01:05:09,0.22,2.42,0.00,26.85,28.30,31.04,5.89,31.25,1013.72,2040.00,2601.51,2682.17,2896.52,349.91,318.82,20.99,0000 0000 0000 0000 000000
2013-11-20 01:06:10,0.25,2.42,0.00,26.83,28.30,31.05,5.97,31.42,1013.70,2040.00,2601.19,2682.03,2896.19,350.29,319.19,21.00,0000 0000 0000 0000 000000
2013-11-20 01:07:10,0.16,2.42,0.00,26.85,28.30,31.04,5.81,30.88,1013.71,2040.00,2600.95,2681.70,2896.05,349.92,318.88,21.01,0000 0000 0000 0000 000000
2013-11-20 01:08:10,0.21,2.42,0.00,26.85,28.30,31.08,5.79,31.04,1013.70,2040.00,2600.40,2681.28,2895.58,350.18,319.32,21.01,0000 0000 0000 0000 000000
2013-11-20 01:09:10,0.27,2.43,0.00,26.83,28.31,31.06,5.73,31.71,1013.71,2040.00,2600.12,2681.08,2895.21,350.07,318.98,21.02,0000 0000 0000 0000 000000
2013-11-20 01:10:11,0.19,2.43,0.00,26.83,28.32,31.08,5.83,31.21,1013.72,2040.00,2599.57,2680.68,2894.94,350.01,318.64,21.02,0000 0000 0000 0000 000000
2013-11-20 01:11:11,0.27,2.43,0.00,26.85,28.32,31.08,5.92,31.42,1013.71,2040.00,2599.18,2680.27,2894.42,350.36,319.23,21.03,0000 0000 0000 0000 000000
2013-11-20 01:12:11,0.26,2.43,0.00,26.83,28.32,31.09,5.88,31.29,1013.69,2040.00,2598.62,2680.09,2894.15,349.05,318.05,21.04,0000 0000 0000 0000 000000
2013-11-20 01:13:11,0.20,2.43,0.00,26.84,28.32,31.10,5.89,31.75,1013.70,2040.00,2598.22,2679.84,2893.92,350.03,319.26,21.04,0000 0000 0000 0000 000000
2013-11-20 01:14:12,0.23,2.43,0.00,26.84,28.32,31.07,5.66,31.08,1013.69,2040.00,2597.85,2679.35,2893.38,350.18,319.06,21.05,0000 0000 0000 0000 000000
2013-11-20 01:15:12,0.27,2.43,0.00,26.86,28.32,31.09,6.05,31.21,1013.69,2039.99,2597.33,2679.13,2893.13,349.79,318.16,21.05,0000 0000 0000 0000 000000
2013-11-20 01:16:12,0.19,2.43,0.00,26.89,28.32,31.07,5.96,31.54,1013.70,2039.99,2597.04,2678.83,2892.79,350.08,318.93,21.06,0000 0000 0000 0000 000000
2013-11-20 01:17:12,0.25,2.44,0.00,26.90,28.33,31.07,5.81,31.33,1013.70,2039.99,2596.49,2678.32,2892.29,349.27,318.17,21.07,0000 0000 0000 0000 000000
2013-11-20 01:18:13,0.29,2.44,0.00,26.91,28.34,31.08,5.75,31.54,1013.69,2039.98,2596.17,2678.11,2892.10,349.73,318.58,21.07,0000 0000 0000 0000 000000
2013-11-20 01:19:13,0.16,2.44,0.00,26.93,28.35,31.09,6.08,31.88,1013.70,2039.98,2595.84,2677.90,2891.82,350.74,319.48,21.08,0000 0000 0000 0000 000000
2013-11-20 01:20:13,0.22,2.44,0.00,26.94,28.35,31.09,5.82,31.38,1013.74,2039.97,2595.33,2677.42,2891.32,350.36,319.13,21.08,0000 0000 0000 0000 000000
2013-11-20 01:21:13,0.26,2.44,0.00,26.94,28.35,31.04,5.91,31.25,1013.83,2039.97,2595.09,2677.15,2891.11,349.86,318.70,21.09,0000 0000 0000 0000 000000
2013-11-20 01:22:14,0.13,2.44,0.00,26.94,28.35,31.10,5.93,31.33,1014.01,2039.98,2594.64,2677.04,2890.81,350.28,319.15,21.09,0000 0000 0000 0000 000000
2013-11-20 01:23:14,0.20,2.44,0.00,26.92,28.35,31.08,5.74,31.21,1014.11,2039.98,2594.24,2676.70,2890.33,349.51,318.50,21.10,0000 0000 0000 0000 000000
2013-11-20 01:24:14,0.27,2.45,0.00,26.90,28.35,31.10,6.02,31.54,1013.97,2039.95,2593.94,2676.27,2890.11,350.89,319.73,21.11,0000 0000 0000 0000 000000
2013-11-20 01:25:14,0.17,2.45,0.00,26.90,28.36,31.11,5.68,31.17,1013.90,2039.96,2593.40,2676.09,2889.80,349.19,318.17,21.11,0000 0000 0000 0000 000000
2013-11-20 01:26:14,0.22,2.45,0.00,26.89,28.37,31.14,5.86,31.00,1013.91,2039.95,2593.14,2675.91,2889.30,350.12,319.02,21.12,0000 0000 0000 0000 000000
2013-11-20 01:27:14,0.18,2.45,0.00,26.89,28.37,31.12,6.07,31.58,1013.90,2039.97,2592.76,2675.44,2889.10,350.26,319.14,21.12,0000 0000 0000 0000 000000
2013-11-20 01:28:15,0.26,2.45,0.00,26.89,28.37,31.06,5.93,31.42,1013.85,2039.96,2592.30,2675.16,2888.91,349.88,318.79,21.13,0000 0000 0000 0000 000000
2013-11-20 01:29:15,0.19,2.45,0.00,26.88,28.37,31.13,5.92,30.75,1013.88,2039.96,2592.04,2675.02,2888.43,350.54,319.41,21.14,0000 0000 0000 0000 000000
2013-11-20 01:30:15,0.16,2.45,0.00,26.88,28.37,31.12,5.79,31.29,1013.81,2039.95,2591.53,2674.72,2888.15,349.55,318.48,21.14,0000 0000 0000 0000 000000
2013-11-20 01:31:15,0.24,2.45,0.00,26.88,28.37,31.12,5.87,31.17,1013.88,2039.89,2591.18,2674.28,2888.01,350.40,319.03,21.15,0000 0000 0000 0000 000000
2013-11-20 01:32:16,0.15,2.45,0.00,26.87,28.37,31.12,5.88,31.13,1013.93,2039.88,2590.80,2674.09,2887.60,350.33,318.94,21.15,0000 0000 0000 0000 000000
2013-11-20 01:33:16,0.20,2.46,0.00,26.85,28.38,31.11,5.92,31.13,1013.97,2039.81,2590.30,2673.92,2887.22,350.31,319.07,21.16,0000 0000 0000 0000 000000
2013-11-20 01:34:16,0.19,2.46,0.00,26.87,28.39,31.16,5.86,30.83,1013.96,2039.87,2590.05,2673.43,2887.04,349.70,318.67,21.16,0000 0000 0000 0000 000000
2013-11-20 01:35:16,0.24,2.46,0.00,26.88,28.40,31.17,6.11,31.46,1014.05,2039.88,2589.60,2673.16,2886.64,350.04,319.05,21.17,0000 0000 0000 0000 000000
2013-11-20 01:36:17,0.25,2.46,0.00,26.89,28.40,31.15,5.90,31.33,1014.04,2039.85,2589.22,2673.04,2886.24,350.50,319.54,21.18,0000 0000 0000 0000 000000
2013-11-20 01:37:17,0.11,2.46,0.00,26.89,28.40,31.08,5.72,30.83,1014.08,2039.87,2588.97,2672.72,2886.08,349.10,318.16,21.18,0000 0000 0000 0000 000000
2013-11-20 01:38:17,0.23,2.46,0.00,26.90,28.40,31.11,6.04,31.38,1014.13,2039.89,2588.44,2672.32,2885.82,350.63,319.73,21.19,0000 0000 0000 0000 000000
2013-11-20 01:39:17,0.28,2.46,0.00,26.90,28.40,31.17,6.00,31.33,1014.14,2039.80,2588.15,2672.12,2885.34,350.28,318.91,21.19,0000 0000 0000 0000 000000
2013-11-20 01:40:17,0.06,2.46,0.00,26.89,28.40,31.13,5.65,31.25,1014.14,2039.71,2587.78,2672.00,2885.12,350.45,319.26,21.20,0000 0000 0000 0000 000000
2013-11-20 01:41:18,0.13,2.46,0.00,26.90,28.40,31.14,6.00,31.17,1014.16,2039.72,2587.30,2671.59,2884.87,350.56,319.50,21.21,0000 0000 0000 0000 000000
2013-11-20 01:42:18,0.28,2.47,0.00,26.89,28.41,31.15,6.09,31.08,1014.17,2039.65,2587.05,2671.22,2884.36,351.05,319.95,21.21,0000 0000 0000 0000 000000
2013-11-20 01:43:18,0.10,2.47,0.00,26.91,28.41,31.13,5.88,31.42,1014.17,2039.58,2586.55,2671.06,2884.11,350.11,319.08,21.22,0000 0000 0000 0000 000000
2013-11-20 01:44:18,0.13,2.47,0.00,26.92,28.42,31.15,5.63,31.29,1014.17,2039.47,2586.19,2670.74,2883.88,349.84,318.82,21.22,0000 0000 0000 0000 000000
2013-11-20 01:45:18,0.21,2.47,0.00,26.91,28.42,31.13,5.91,31.25,1014.17,2039.43,2585.84,2670.29,2883.40,350.15,319.11,21.23,0000 0000 0000 0000 000000
2013-11-20 01:46:19,0.18,2.47,0.00,26.93,28.42,31.12,5.88,31.08,1014.17,2039.35,2585.33,2670.10,2883.15,349.83,318.80,21.24,0000 0000 0000 0000 000000
2013-11-20 01:47:19,0.10,2.47,0.00,26.93,28.42,31.09,5.90,31.08,1014.17,2039.29,2585.10,2669.98,2882.99,350.15,319.09,21.24,0000 0000 0000 0000 000000
2013-11-20 01:48:19,0.11,2.47,0.00,26.93,28.42,31.18,5.79,30.88,1014.17,2039.30,2584.67,2669.54,2882.50,349.75,318.73,21.25,0000 0000 0000 0000 000000
2013-11-20 01:49:19,0.28,2.47,0.00,26.93,28.42,31.15,5.78,31.08,1014.17,2039.28,2584.25,2669.21,2882.18,350.70,319.59,21.25,0000 0000 0000 0000 000000
2013-11-20 01:50:20,0.17,2.47,0.00,26.94,28.42,31.16,5.74,30.92,1014.17,2039.27,2584.05,2669.07,2882.06,349.23,318.25,21.26,0000 0000 0000 0000 000000
2013-11-20 01:51:20,0.14,2.47,0.00,26.92,28.43,31.16,5.76,30.75,1014.17,2039.43,2583.67,2668.92,2881.84,348.82,317.89,21.26,0000 0000 0000 0000 000000
2013-11-20 01:52:20,0.28,2.48,0.00,26.94,28.44,31.17,5.89,31.29,1014.17,2039.26,2583.25,2668.43,2881.37,350.16,319.09,21.27,0000 0000 0000 0000 000000
2013-11-20 01:53:20,0.13,2.48,0.00,26.93,28.45,31.19,5.84,31.25,1014.17,2039.21,2582.99,2668.15,2881.13,350.10,319.04,21.28,0000 0000 0000 0000 000000
2013-11-20 01:54:21,0.17,2.48,0.00,26.89,28.45,31.17,5.81,31.04,1014.17,2039.26,2582.48,2668.05,2881.03,349.63,318.65,21.28,0000 0000 0000 0000 000000
2013-11-20 01:55:21,0.17,2.48,0.00,26.83,28.45,31.19,5.83,30.88,1014.17,2039.19,2582.17,2667.86,2880.60,348.85,318.00,21.29,0000 0000 0000 0000 000000
2013-11-20 01:56:21,0.15,2.48,0.00,26.70,28.45,31.18,5.98,31.29,1014.17,2039.14,2581.98,2667.37,2880.23,350.28,319.44,21.29,0000 0000 0000 0000 000000
2013-11-20 01:57:21,0.18,2.48,0.00,26.62,28.45,31.12,5.90,30.92,1014.17,2039.11,2581.46,2667.14,2880.05,349.65,319.10,21.30,0000 0000 0000 0000 000000
2013-11-20 01:58:22,0.17,2.48,0.00,26.55,28.45,31.15,5.88,31.08,1014.17,2039.06,2581.17,2667.03,2879.62,350.55,320.01,21.31,0000 0000 0000 0000 000000
2013-11-20 01:59:22,0.13,2.48,0.00,26.44,28.47,31.17,5.92,31.29,1014.17,2039.03,2580.89,2666.59,2879.24,349.26,318.80,21.31,0000 0000 0000 0000 000000
2013-11-20 02:00:22,0.23,2.48,0.00,26.39,28.47,31.16,5.86,31.42,1014.16,2039.02,2580.38,2666.22,2879.08,349.80,318.96,21.32,0000 0000 0000 0000 000000
2013-11-20 02:01:22,0.20,2.49,0.00,26.40,28.47,31.15,5.89,31.04,1014.16,2039.00,2580.14,2666.07,2878.93,350.26,320.05,21.32,0000 0000 0000 0000 000000
2013-11-20 02:02:23,0.11,2.49,0.00,26.34,28.47,31.12,5.93,31.54,1014.16,2039.01,2579.75,2665.77,2878.44,350.22,319.79,21.33,0000 0000 0000 0000 000000
2013-11-20 02:03:23,0.28,2.49,0.00,26.38,28.47,31.15,5.87,31.33,1014.17,2039.02,2579.29,2665.34,2878.17,349.59,319.16,21.33,0000 0000 0000 0000 000000
2013-11-20 02:04:23,0.23,2.49,0.00,26.47,28.49,31.16,5.93,31.21,1014.16,2039.00,2579.08,2665.12,2878.05,350.44,319.85,21.34,0000 0000 0000 0000 000000
2013-11-20 02:05:23,0.08,2.49,0.00,26.53,28.50,31.17,5.87,30.96,1014.16,2039.00,2578.76,2665.02,2877.73,350.29,319.64,21.35,0000 0000 0000 0000 000000
2013-11-20 02:06:24,0.18,2.49,0.00,26.58,28.50,31.15,6.00,31.38,1014.14,2039.00,2578.31,2664.76,2877.29,350.86,320.11,21.35,0000 0000 0000 0000 000000
2013-11-20 02:07:24,0.24,2.49,0.00,26.61,28.50,31.19,5.88,30.71,1014.07,2039.00,2578.09,2664.31,2877.10,350.87,320.07,21.36,0000 0000 0000 0000 000000
2013-11-20 02:08:24,0.18,2.49,0.00,26.61,28.50,31.19,5.84,31.00,1013.88,2039.00,2577.72,2664.11,2876.93,350.18,319.38,21.36,0000 0000 0000 0000 000000
2013-11-20 02:09:24,0.17,2.49,0.00,26.66,28.50,31.19,5.83,31.29,1013.74,2039.01,2577.27,2664.01,2876.42,350.14,319.23,21.37,0000 0000 0000 0000 000000
2013-11-20 02:10:25,0.21,2.50,0.00,26.67,28.51,31.17,5.83,31.08,1013.75,2039.01,2577.08,2663.75,2876.15,350.02,319.12,21.38,0000 0000 0000 0000 000000
2013-11-20 02:11:25,0.16,2.50,0.00,26.71,28.52,31.19,5.83,30.83,1013.76,2039.00,2576.59,2663.31,2876.04,349.90,318.97,21.38,0000 0000 0000 0000 000000
2013-11-20 02:12:25,0.24,2.50,0.00,26.70,28.52,31.17,5.91,31.54,1013.72,2039.00,2576.21,2663.11,2875.74,350.23,319.27,21.39,0000 0000 0000 0000 000000
2013-11-20 02:13:25,0.17,2.50,0.00,26.70,28.52,31.15,5.98,31.00,1013.70,2039.00,2576.00,2662.98,2875.30,351.35,320.29,21.39,0000 0000 0000 0000 000000
2013-11-20 02:14:25,0.16,2.50,0.00,26.71,28.52,31.14,5.88,31.33,1013.70,2039.00,2575.52,2662.56,2875.10,349.35,318.45,21.40,0000 0000 0000 0000 000000
2013-11-20 02:15:26,0.27,2.50,0.00,26.73,28.52,31.18,5.97,31.33,1013.70,2039.00,2575.19,2662.21,2874.83,350.06,319.06,21.41,0000 0000 0000 0000 000000
2013-11-20 02:16:26,0.19,2.50,0.00,26.71,28.52,31.18,5.91,31.33,1013.70,2039.00,2574.90,2662.06,2874.38,350.84,319.76,21.41,0000 0000 0000 0000 000000
2013-11-20 02:17:26,0.17,2.50,0.00,26.67,28.52,31.16,5.82,30.75,1013.71,2039.00,2574.38,2661.90,2874.14,349.18,318.33,21.42,0000 0000 0000 0000 000000
2013-11-20 02:18:26,0.18,2.51,0.00,26.65,28.52,31.17,5.83,31.08,1013.70,2039.00,2574.14,2661.45,2874.01,349.46,318.85,21.42,0000 0000 0000 0000 000000
2013-11-20 02:19:27,0.21,2.51,0.00,26.60,28.53,31.17,5.95,31.04,1013.71,2039.00,2573.90,2661.16,2873.57,350.96,320.03,21.43,0000 0000 0000 0000 000000
2013-11-20 02:20:27,0.21,2.51,0.00,26.61,28.53,31.22,5.72,30.96,1013.71,2039.00,2573.41,2661.05,2873.21,348.82,318.08,21.43,0000 0000 0000 0000 000000
2013-11-20 02:21:27,0.18,2.51,0.00,26.62,28.54,31.21,5.86,30.79,1013.70,2039.00,2573.12,2660.71,2873.07,351.32,320.34,21.44,0000 0000 0000 0000 000000
2013-11-20 02:22:27,0.20,2.51,0.00,26.68,28.55,31.18,5.87,30.67,1013.70,2039.00,2572.76,2660.27,2872.73,350.17,318.57,21.45,0000 0000 0000 0000 000000
2013-11-20 02:23:27,0.26,2.51,0.00,26.72,28.55,31.17,5.73,31.00,1013.71,2039.00,2572.30,2660.09,2872.28,349.38,318.67,21.45,0000 0000 0000 0000 000000
2013-11-20 02:24:27,0.20,2.51,0.00,26.70,28.55,31.16,5.96,31.08,1013.70,2039.00,2572.09,2660.01,2872.10,348.71,318.23,21.46,0000 0000 0000 0000 000000
2013-11-20 02:25:28,0.07,2.51,0.00,26.68,28.55,31.19,5.92,31.04,1013.72,2038.99,2571.63,2659.63,2871.91,351.34,320.30,21.46,0000 0000 0000 0000 000000
2013-11-20 02:26:28,0.26,2.51,0.00,26.70,28.55,31.15,5.83,31.04,1013.71,2038.99,2571.24,2659.24,2871.44,349.84,318.91,21.47,0000 0000 0000 0000 000000
2013-11-20 02:27:28,0.28,2.52,0.00,26.67,28.55,31.18,5.82,31.21,1013.70,2038.99,2571.02,2659.08,2871.16,349.96,319.04,21.48,0000 0000 0000 0000 000000
2013-11-20 02:28:28,0.11,2.52,0.00,26.64,28.55,31.19,5.76,31.25,1013.72,2038.98,2570.51,2658.89,2871.00,349.93,319.05,21.48,0000 0000 0000 0000 000000
2013-11-20 02:29:29,0.18,2.52,0.00,26.67,28.55,31.18,5.94,31.25,1013.71,2038.98,2570.18,2658.44,2870.60,350.29,319.36,21.49,0000 0000 0000 0000 000000
2013-11-20 02:30:29,0.28,2.52,0.00,26.59,28.55,31.18,5.92,31.33,1013.70,2038.99,2569.99,2658.16,2870.24,350.05,319.21,21.49,0000 0000 0000 0000 000000
2013-11-20 02:31:29,0.17,2.52,0.00,26.53,28.55,31.21,5.99,31.54,1013.71,2038.98,2569.53,2658.06,2870.08,349.67,319.05,21.50,0000 0000 0000 0000 000000
2013-11-20 02:32:29,0.14,2.52,0.00,26.60,28.55,31.19,5.84,31.08,1013.72,2038.97,2569.19,2657.89,2869.87,349.76,318.95,21.50,0000 0000 0000 0000 000000
2013-11-20 02:33:30,0.14,2.52,0.00,26.63,28.55,31.21,5.85,30.92,1013.73,2038.96,2568.95,2657.42,2869.37,349.75,318.92,21.51,0000 0000 0000 0000 000000
2013-11-20 02:34:30,0.28,2.52,0.00,26.64,28.55,31.18,5.71,30.96,1013.72,2038.96,2568.45,2657.15,2869.13,348.98,318.19,21.52,0000 0000 0000 0000 000000
2013-11-20 02:35:30,0.22,2.53,0.00,26.65,28.56,31.23,5.76,30.92,1013.72,2038.98,2568.16,2657.04,2868.99,348.98,318.35,21.52,0000 0000 0000 0000 000000
2013-11-20 02:36:30,0.10,2.53,0.00,26.69,28.57,31.22,5.90,31.13,1013.71,2038.98,2568.00,2656.91,2868.62,350.34,319.62,21.53,0000 0000 0000 0000 000000